sat.trackr.live / text

‹ back to catalog

HAIYANG-2B

NORAD 43655 · 2018-081A

PAYLOAD ACTIVE UNKNOWN

§ Identity

Operator
Country
PRC
Launch date
2018-10-24
Launch site
TAISC
Launch vehicle
Mass (kg)
RCS (m²)

External: N2YO · Heavens-Above · Gunter

§ Orbital elements

Epoch: 2026-09-20T04:31:50.374272Z

Period
104.40 min
Inclination
99.3330°
Eccentricity
0.0001783
Mean motion
13.79305788 rev/d
Perigee alt
965.0 km
Apogee alt
967.7 km
Semi-major
7,344.5 km
B*
5.3103e-5
RAAN
270.5231°
Arg perigee
57.3902°
Mean anomaly
302.7422°
Rev number
39,802

§ Raw data

HAIYANG-2B1 43655U 18081A   26263.18877748  .00000010  00000+0  53103-4 0  99962 43655  99.3330 270.5231 0001783  57.3902 302.7422 13.79305788398020

JSON: /api/v1/satellites/43655 · /tle

For live sub-satellite position, see the globe view (requires WebGL).

§ Visibility from observer

Set your observer location to see the next 7 days of passes ≥ 10°. The values pass through the URL so the page stays shareable.

No JS? Fill the form by hand. The geolocation button needs JavaScript.

§ Radio — SatNOGS DB

ModeDescriptionDownlinkUplink
FM S-band telemetry 2.247 GHz

1 transmitter · refreshed weekly from db.satnogs.org